EW5637 Weather Reports


Display with metric or nautical units.
time (UTC)temp
F
wind
direction
speed
MPH
gust
MPH
rain 1hr
in
rain 24hr
in
rain mn
in
humidity
%
barometer
mb
20260906231553 68 347 2.0 4.0 0.00 0.00 0.00 76 1016.2
20260906231041 69 347 3.0 4.0 0.00 0.00 0.00 75 1016.4
20260906230541 70 346 3.0 4.0 0.00 0.00 0.00 73 1016.3
20260906230101 70 347 2.0 4.0 0.00 0.00 0.00 71 1016.2
20260906225541 71 347 3.0 4.0 0.00 0.00 0.00 71 1016.2
20260906225041 72 14 2.0 4.0 0.00 0.00 0.00 69 1016.2
20260906224555 73 14 1.0 5.0 0.00 0.00 0.00 68 1016.2
20260906224038 73 14 2.0 5.0 0.00 0.00 0.00 67 1016.2
20260906223539 74 26 3.0 6.0 0.00 0.00 0.00 67 1016.2
20260906223056 74 24 2.0 7.0 0.00 0.00 0.00 64 1016.2
20260906222538 74 23 4.0 9.0 0.00 0.00 0.00 62 1016.2
20260906222039 74 59 4.0 9.0 0.00 0.00 0.00 61 1016.2
20260906221601 75 42 3.0 7.0 0.00 0.00 0.00 62 1016.0
20260906221041 75 41 4.0 10.0 0.00 0.00 0.00 62 1016.0
20260906220541 75 54 3.0 13.0 0.00 0.00 0.00 63 1016.1
20260906220059 75 44 5.0 13.0 0.00 0.00 0.00 61 1016.1
20260906215538 75 64 4.0 11.0 0.00 0.00 0.00 62 1016.2
20260906215039 75 52 4.0 10.0 0.00 0.00 0.00 61 1016.2
20260906214553 75 30 5.0 10.0 0.00 0.00 0.00 60 1016.1
20260906214038 75 12 6.0 12.0 0.00 0.00 0.00 58 1016.0
20260906213542 75 348 5.0 12.0 0.00 0.00 0.00 59 1015.9
20260906213102 75 29 7.0 12.0 0.00 0.00 0.00 60 1016.1
20260906212542 75 13 6.0 13.0 0.00 0.00 0.00 62 1016.0
20260906212041 75 28 7.0 13.0 0.00 0.00 0.00 63 1016.1
20260906211555 75 51 7.0 13.0 0.00 0.00 0.00 61 1016.1
20260906211041 75 331 5.0 13.0 0.00 0.00 0.00 61 1016.1
20260906210542 75 26 7.0 14.0 0.00 0.00 0.00 62 1016.0
20260906210059 75 14 6.0 14.0 0.00 0.00 0.00 63 1015.9
20260906205540 75 360 8.0 14.0 0.00 0.00 0.00 62 1015.9
20260906205038 76 348 8.0 14.0 0.00 0.00 0.00 63 1015.9
20260906204603 76 61 6.0 14.0 0.00 0.00 0.00 64 1015.9
20260906204043 76 29 4.0 12.0 0.00 0.00 0.00 64 1016.0
20260906203540 76 27 4.0 12.0 0.00 0.00 0.00 62 1015.9
20260906203102 75 350 6.0 10.0 0.00 0.00 0.00 60 1015.9
20260906202545 75 51 6.0 13.0 0.00 0.00 0.00 63 1015.9
20260906202038 75 349 4.0 13.0 0.00 0.00 0.00 64 1015.9
20260906201607 75 17 8.0 13.0 0.00 0.00 0.00 60 1015.9
20260906201041 76 72 3.0 12.0 0.00 0.00 0.00 67 1015.9
20260906200541 76 41 7.0 12.0 0.00 0.00 0.00 63 1015.8
20260906195540 76 43 6.0 13.0 0.00 0.00 0.00 62 1015.8
20260906195038 75 55 4.0 15.0 0.00 0.00 0.00 65 1015.9
20260906194600 75 25 7.0 15.0 0.00 0.00 0.00 66 1016.1
20260906194041 75 65 6.0 13.0 0.00 0.00 0.00 62 1016.0
20260906193541 75 23 7.0 15.0 0.00 0.00 0.00 63 1016.0
20260906193058 75 46 7.0 15.0 0.00 0.00 0.00 63 1016.0
20260906192541 75 19 9.0 17.0 0.00 0.00 0.00 62 1016.1
20260906192040 75 59 8.0 17.0 0.00 0.00 0.00 64 1016.1
20260906191604 76 75 9.0 16.0 0.00 0.00 0.00 64 1016.2
20260906191041 76 11 3.0 14.0 0.00 0.00 0.00 68 1016.1
20260906190544 75 331 7.0 14.0 0.00 0.00 0.00 68 1016.2
20260906190101 75 350 9.0 14.0 0.00 0.00 0.00 67 1016.2
20260906185541 75 17 7.0 17.0 0.00 0.00 0.00 67 1016.2
20260906185041 75 27 10.0 17.0 0.00 0.00 0.00 67 1016.3
20260906184559 75 360 6.0 13.0 0.00 0.00 0.00 70 1016.3
20260906184041 74 24 8.0 13.0 0.00 0.00 0.00 66 1016.3
20260906183540 74 53 7.0 18.0 0.00 0.00 0.00 68 1016.3
20260906183059 74 24 12.0 18.0 0.00 0.00 0.00 66 1016.4
20260906182542 75 14 5.0 16.0 0.00 0.00 0.00 70 1016.3
20260906182040 75 44 8.0 14.0 0.00 0.00 0.00 68 1016.3
20260906181613 74 349 7.0 18.0 0.00 0.00 0.00 68 1016.4
20260906181041 75 21 7.0 18.0 0.00 0.00 0.00 69 1016.3
20260906180541 74 5 6.0 15.0 0.00 0.00 0.00 66 1016.3
20260906180109 74 21 5.0 15.0 0.00 0.00 0.00 70 1016.3
20260906175541 73 5 7.0 16.0 0.00 0.00 0.00 68 1016.3
20260906175040 75 11 9.0 16.0 0.00 0.00 0.00 67 1016.3
20260906174558 75 10 8.0 13.0 0.00 0.00 0.00 67 1016.3
20260906174041 74 67 5.0 10.0 0.00 0.00 0.00 67 1016.4
20260906173540 74 9 5.0 10.0 0.00 0.00 0.00 70 1016.4
20260906173052 73 360 6.0 12.0 0.00 0.00 0.00 70 1016.5
20260906172543 74 18 7.0 12.0 0.00 0.00 0.00 68 1016.5
20260906172042 74 51 5.0 12.0 0.00 0.00 0.00 66 1016.5
20260906171600 75 65 6.0 12.0 0.00 0.00 0.00 64 1016.7
20260906171043 75 332 8.0 11.0 0.00 0.00 0.00 65 1016.7
20260906170541 75 63 5.0 14.0 0.00 0.00 0.00 67 1016.7
20260906170109 74 23 5.0 14.0 0.00 0.00 0.00 67 1016.6
20260906165543 74 344 4.0 12.0 0.00 0.00 0.00 69 1016.6
20260906165043 74 44 6.0 11.0 0.00 0.00 0.00 68 1016.6
20260906164554 75 40 7.0 11.0 0.00 0.00 0.00 67 1016.7
20260906164043 75 46 6.0 13.0 0.00 0.00 0.00 69 1016.6
20260906163542 75 71 6.0 14.0 0.00 0.00 0.00 68 1016.6
20260906163109 74 49 7.0 14.0 0.00 0.00 0.00 66 1016.6
20260906162543 74 26 8.0 14.0 0.00 0.00 0.00 67 1016.6
20260906162042 74 13 7.0 13.0 0.00 0.00 0.00 70 1016.7
20260906161602 74 5 6.0 13.0 0.00 0.00 0.00 72 1016.8
20260906161044 74 336 6.0 12.0 0.00 0.00 0.00 69 1016.7
20260906160542 74 350 5.0 15.0 0.00 0.00 0.00 73 1016.7
20260906155543 74 350 6.0 15.0 0.00 0.00 0.00 72 1016.7
20260906155041 73 17 10.0 15.0 0.00 0.00 0.00 71 1016.7
20260906154601 74 340 8.0 12.0 0.00 0.00 0.00 73 1016.7
20260906154043 74 360 8.0 12.0 0.00 0.00 0.00 71 1016.8
20260906153545 74 16 8.0 13.0 0.00 0.00 0.00 70 1016.6
20260906153052 74 42 7.0 13.0 0.00 0.00 0.00 69 1016.6
20260906152545 74 5 6.0 13.0 0.00 0.00 0.00 70 1016.6
20260906152045 74 22 3.0 7.0 0.00 0.00 0.00 74 1016.4
20260906151603 73 348 2.0 9.0 0.00 0.00 0.00 70 1016.6
20260906151043 73 58 3.0 9.0 0.00 0.00 0.00 73 1016.7
20260906150543 73 9 5.0 9.0 0.00 0.00 0.00 71 1016.6
20260906150059 73 57 3.0 9.0 0.00 0.00 0.00 71 1016.5
20260906145544 73 12 3.0 9.0 0.00 0.00 0.00 71 1016.4
20260906145043 73 73 4.0 9.0 0.00 0.00 0.00 74 1016.5
20260906144604 72 46 4.0 9.0 0.00 0.00 0.00 73 1016.4
20260906144042 72 19 0.0 8.0 0.00 0.00 0.00 73 1016.5
20260906143542 72 31 4.0 8.0 0.00 0.00 0.00 74 1016.5
20260906143054 71 45 3.0 10.0 0.00 0.00 0.00 76 1016.5
20260906142542 71 73 4.0 10.0 0.00 0.00 0.00 74 1016.6
20260906142037 71 25 5.0 10.0 0.00 0.00 0.00 76 1016.5
20260906141549 71 21 3.0 8.0 0.00 0.00 0.00 77 1016.4
20260906141041 70 9 4.0 8.0 0.00 0.00 0.00 78 1016.4
20260906140542 70 344 4.0 10.0 0.00 0.00 0.00 76 1016.4
20260906140059 70 59 3.0 10.0 0.00 0.00 0.00 78 1016.4
20260906135539 70 13 6.0 10.0 0.00 0.00 0.00 77 1016.6
20260906135039 70 15 2.0 8.0 0.00 0.00 0.00 80 1016.5
20260906134554 69 29 4.0 9.0 0.00 0.00 0.00 79 1016.4
20260906134041 69 57 3.0 9.0 0.00 0.00 0.00 80 1016.4
20260906133541 69 40 5.0 9.0 0.00 0.00 0.00 80 1016.4
20260906133056 69 40 4.0 10.0 0.00 0.00 0.00 82 1016.4
20260906132539 68 360 5.0 10.0 0.00 0.00 0.00 81 1016.4
20260906132040 68 329 5.0 9.0 0.00 0.00 0.00 80 1016.5
20260906131553 68 350 5.0 9.0 0.00 0.00 0.00 81 1016.5
20260906131040 68 345 5.0 9.0 0.00 0.00 0.00 81 1016.4
20260906130540 68 347 4.0 9.0 0.00 0.00 0.00 82 1016.4
20260906130053 67 331 5.0 9.0 0.00 0.00 0.00 82 1016.4
20260906125540 67 340 4.0 11.0 0.00 0.00 0.00 82 1016.3
20260906125038 67 325 5.0 11.0 0.00 0.00 0.00 81 1016.3
20260906124600 67 13 5.0 10.0 0.00 0.00 0.00 80 1016.2
20260906124038 67 360 3.0 9.0 0.00 0.00 0.00 81 1016.1
20260906123539 67 30 2.0 8.0 0.00 0.00 0.00 81 1016.1
20260906123059 67 344 4.0 8.0 0.00 0.00 0.00 82 1016.1
20260906122543 67 12 0.0 3.0 0.00 0.00 0.00 81 1016.0
20260906122038 67 0 0.0 0.0 0.00 0.00 0.00 81 1015.9
20260906121558 66 0 0.0 4.0 0.00 0.00 0.00 83 1015.8
20260906121038 66 0 0.0 4.0 0.00 0.00 0.00 85 1015.7
20260906120537 65 360 2.0 4.0 0.00 0.00 0.00 83 1015.7
20260906120112 65 0 0.0 1.0 0.00 0.00 0.00 84 1015.8
20260906115539 65 266 0.0 0.0 0.00 0.00 0.00 84 1015.8
20260906115041 64 0 0.0 0.0 0.00 0.00 0.00 85 1015.6
20260906114601 63 0 0.0 1.0 0.00 0.00 0.00 86 1015.6
20260906114040 63 0 0.0 5.0 0.00 0.00 0.00 86 1015.5
20260906113541 63 0 0.0 5.0 0.00 0.00 0.00 87 1015.5
20260906113101 62 0 0.0 3.0 0.00 0.00 0.00 86 1015.5
20260906112541 62 0 0.0 3.0 0.00 0.00 0.00 87 1015.5
20260906112038 62 343 0.0 3.0 0.00 0.00 0.00 87 1015.4
20260906111608 62 0 0.0 2.0 0.00 0.00 0.00 86 1015.4
20260906111037 62 360 0.0 6.0 0.00 0.00 0.00 85 1015.4
20260906110539 62 0 0.0 8.0 0.00 0.00 0.00 84 1015.3
20260906110053 62 360 4.0 8.0 0.00 0.00 0.00 85 1015.2
20260906105537 63 14 3.0 8.0 0.00 0.00 0.00 84 1015.2
20260906105040 63 15 2.0 11.0 0.00 0.00 0.00 85 1015.2
20260906104600 62 16 5.0 11.0 0.00 0.00 0.00 85 1015.1
20260906104041 62 24 5.0 11.0 0.00 0.00 0.00 86 1015.0
20260906103545 61 348 5.0 9.0 0.00 0.00 0.00 86 1015.0
20260906103055 61 325 3.0 10.0 0.00 0.00 0.00 86 1014.9
20260906102538 61 15 2.0 10.0 0.00 0.00 0.00 87 1014.9
20260906102043 61 351 5.0 10.0 0.00 0.00 0.00 89 1014.9
20260906101556 59 15 4.0 9.0 0.00 0.00 0.00 90 1014.9
20260906101037 58 350 3.0 8.0 0.00 0.00 0.00 90 1014.9
20260906100543 59 348 1.0 5.0 0.00 0.00 0.00 90 1014.7
20260906100108 59 0 0.0 3.0 0.00 0.00 0.00 90 1014.5
20260906095538 59 360 1.0 4.0 0.00 0.00 0.00 90 1014.5
20260906095041 59 5 1.0 4.0 0.00 0.00 0.00 90 1014.5
20260906094559 59 5 1.0 4.0 0.00 0.00 0.00 90 1014.5
20260906094041 59 333 1.0 3.0 0.00 0.00 0.00 89 1014.5
20260906093541 59 333 2.0 4.0 0.00 0.00 0.00 90 1014.4
20260906093056 59 331 2.0 6.0 0.00 0.00 0.00 90 1014.4
20260906092543 59 330 3.0 8.0 0.00 0.00 0.00 90 1014.2
20260906092039 59 331 4.0 8.0 0.00 0.00 0.00 90 1014.2
20260906091554 59 327 6.0 8.0 0.00 0.00 0.00 90 1014.0
20260906091041 59 324 5.0 8.0 0.00 0.00 0.00 90 1014.0
20260906090541 59 346 3.0 5.0 0.00 0.00 0.00 91 1014.1
20260906090100 59 5 3.0 4.0 0.00 0.00 0.00 91 1014.0
20260906085540 58 5 2.0 4.0 0.00 0.00 0.00 91 1014.0
20260906085040 58 5 2.0 4.0 0.00 0.00 0.00 91 1014.0
20260906084557 58 5 2.0 3.0 0.00 0.00 0.00 91 1014.0
20260906084041 58 5 0.0 2.0 0.00 0.00 0.00 92 1014.0
20260906083541 58 5 1.0 3.0 0.00 0.00 0.00 92 1014.0
20260906083057 58 5 1.0 4.0 0.00 0.00 0.00 92 1013.9
20260906082537 58 5 2.0 4.0 0.00 0.00 0.00 91 1014.0
20260906082043 58 5 2.0 4.0 0.00 0.00 0.00 91 1013.9
20260906081553 58 5 2.0 4.0 0.00 0.00 0.00 90 1013.8
20260906081043 58 5 3.0 4.0 0.00 0.00 0.00 91 1013.8
20260906080542 59 5 0.0 2.0 0.00 0.00 0.00 90 1013.8
20260906080110 59 0 0.0 1.0 0.00 0.00 0.00 91 1013.8
20260906075543 59 0 0.0 1.0 0.00 0.00 0.00 91 1013.9
20260906075043 59 0 0.0 2.0 0.00 0.00 0.00 91 1013.8
20260906074600 59 0 0.0 2.0 0.00 0.00 0.00 91 1013.8
20260906074040 59 5 0.0 2.0 0.00 0.00 0.00 91 1013.9
20260906073543 59 0 0.0 3.0 0.00 0.00 0.00 91 1013.8
20260906073054 59 0 1.0 3.0 0.00 0.00 0.00 91 1013.8
20260906072542 59 5 1.0 3.0 0.00 0.00 0.00 91 1013.7
20260906072042 59 5 1.0 3.0 0.00 0.00 0.00 91 1013.6
20260906071601 59 5 0.0 3.0 0.00 0.00 0.00 92 1013.6
20260906071042 59 0 1.0 3.0 0.00 0.00 0.00 91 1013.7
20260906070542 59 5 1.0 3.0 0.00 0.00 0.00 92 1013.6
20260906070104 58 0 0.0 3.0 0.00 0.00 0.00 92 1013.7
20260906065543 58 5 1.0 3.0 0.00 0.00 0.00 91 1013.8
20260906065042 58 5 2.0 3.0 0.00 0.00 0.00 91 1013.8
20260906064606 59 5 0.0 2.0 0.00 0.00 0.00 91 1013.7
20260906064043 59 0 0.0 2.0 0.00 0.00 0.00 92 1013.7
20260906063542 59 5 1.0 2.0 0.00 0.00 0.00 92 1013.6
20260906063105 58 0 0.0 0.0 0.00 0.00 0.00 92 1013.7
20260906062545 58 0 0.0 0.0 0.00 0.00 0.00 91 1013.7
20260906062042 58 0 0.0 0.0 0.00 0.00 0.00 91 1013.7
20260906061558 59 0 0.0 0.0 0.00 0.00 0.00 91 1013.9
20260906061042 59 0 0.0 0.0 0.00 0.00 0.00 91 1013.8
20260906060542 59 0 0.0 0.0 0.00 0.00 0.00 91 1013.8
20260906060104 59 0 0.0 0.0 0.00 0.00 0.00 91 1013.8
20260906055542 59 0 0.0 0.0 0.00 0.00 0.00 92 1013.8
20260906055043 59 0 0.0 0.0 0.00 0.00 0.00 92 1013.7
20260906054556 59 0 0.0 2.0 0.00 0.00 0.00 91 1013.9
20260906054044 59 0 0.0 3.0 0.00 0.00 0.00 91 1013.9
20260906053543 59 0 1.0 3.0 0.00 0.00 0.00 91 1013.9
20260906053055 59 5 1.0 3.0 0.00 0.00 0.00 91 1013.9
20260906052542 59 5 2.0 4.0 0.00 0.00 0.00 90 1013.9
20260906052043 60 5 2.0 4.0 0.00 0.00 0.00 92 1014.0
20260906051602 59 5 1.0 3.0 0.00 0.00 0.00 92 1013.9
20260906051038 59 5 2.0 3.0 0.00 0.00 0.00 92 1014.0
20260906050541 59 5 1.0 3.0 0.00 0.00 0.00 91 1014.0
20260906045543 60 5 1.0 4.0 0.00 0.00 0.00 92 1014.0
20260906045045 60 5 1.0 4.0 0.00 0.00 0.00 93 1014.0
20260906044558 59 5 2.0 4.0 0.00 0.00 0.00 92 1014.0
20260906044041 59 5 2.0 4.0 0.00 0.00 0.00 92 1014.0
20260906043540 59 5 1.0 4.0 0.00 0.00 0.00 93 1014.0
20260906043053 59 5 1.0 4.0 0.00 0.00 0.00 93 1014.0
20260906042540 59 5 2.0 3.0 0.00 0.00 0.00 93 1014.0
20260906042040 58 5 0.0 0.0 0.00 0.00 0.00 92 1013.9
20260906041557 58 0 0.0 0.0 0.00 0.00 0.00 91 1013.9
20260906041041 59 0 0.0 0.0 0.00 0.00 0.00 91 1014.0
20260906040540 59 0 0.0 0.0 0.00 0.00 0.00 92 1014.1
20260906040052 59 0 0.0 0.0 0.00 0.00 0.00 92 1014.0
20260906035537 59 0 0.0 0.0 0.00 0.00 0.00 92 1014.1
20260906035041 59 0 0.0 0.0 0.00 0.00 0.00 92 1014.0
20260906034555 59 0 0.0 0.0 0.00 0.00 0.00 91 1014.1
20260906034040 60 0 0.0 2.0 0.00 0.00 0.00 91 1014.0
20260906033538 60 0 0.0 2.0 0.00 0.00 0.00 91 1013.9
20260906033056 60 5 1.0 2.0 0.00 0.00 0.00 92 1013.8
20260906032537 60 5 0.0 2.0 0.00 0.00 0.00 92 1013.8
20260906032037 60 0 0.0 1.0 0.00 0.00 0.00 92 1013.7
20260906031600 60 0 0.0 2.0 0.00 0.00 0.00 92 1013.9
20260906031041 60 0 0.0 2.0 0.00 0.00 0.00 92 1013.8
20260906030541 60 5 1.0 2.0 0.00 0.00 0.00 91 1013.8
20260906025541 61 0 0.0 0.0 0.00 0.00 0.00 91 1013.7
20260906025039 61 0 0.0 0.0 0.00 0.00 0.00 92 1013.8
20260906024616 61 0 0.0 0.0 0.00 0.00 0.00 91 1013.8
20260906024041 62 0 0.0 0.0 0.00 0.00 0.00 91 1013.8
20260906023541 62 0 0.0 0.0 0.00 0.00 0.00 92 1013.7
20260906023052 62 0 0.0 2.0 0.00 0.00 0.00 91 1013.8
20260906022542 62 0 0.0 2.0 0.00 0.00 0.00 91 1013.7
20260906022042 62 0 1.0 2.0 0.00 0.00 0.00 90 1013.7
20260906021551 62 5 0.0 2.0 0.00 0.00 0.00 91 1013.6
20260906021041 62 0 0.0 2.0 0.00 0.00 0.00 90 1013.8
20260906020540 63 0 0.0 2.0 0.00 0.00 0.00 90 1013.6
20260906015540 63 0 0.0 1.0 0.00 0.00 0.00 91 1013.5
20260906015038 63 0 0.0 1.0 0.00 0.00 0.00 91 1013.5
20260906014602 63 0 0.0 1.0 0.00 0.00 0.00 91 1013.5
20260906014040 63 0 0.0 3.0 0.00 0.00 0.00 91 1013.4
20260906013540 63 0 0.0 3.0 0.00 0.00 0.00 91 1013.4
20260906013052 63 5 1.0 3.0 0.00 0.00 0.00 90 1013.3
20260906012540 63 5 1.0 3.0 0.00 0.00 0.00 90 1013.1
20260906012040 63 5 0.0 3.0 0.00 0.00 0.00 90 1013.0
20260906011556 63 0 0.0 2.0 0.00 0.00 0.00 91 1013.1
20260906011040 63 5 1.0 2.0 0.00 0.00 0.00 91 1013.1
20260906010540 63 5 1.0 2.0 0.00 0.00 0.00 91 1013.1
20260906010108 63 5 1.0 3.0 0.00 0.00 0.00 89 1013.1
20260906005541 64 5 2.0 3.0 0.00 0.00 0.00 89 1013.0
20260906005038 64 5 1.0 3.0 0.00 0.00 0.00 88 1013.0
20260906004553 64 5 1.0 2.0 0.00 0.00 0.00 89 1013.1
20260906004041 65 5 1.0 2.0 0.00 0.00 0.00 88 1013.0
20260906003541 65 5 0.0 2.0 0.00 0.00 0.00 88 1013.0
20260906003110 66 0 0.0 2.0 0.00 0.00 0.00 89 1012.9
20260906002541 66 0 0.0 2.0 0.00 0.00 0.00 89 1012.9
20260906002041 66 0 0.0 3.0 0.00 0.00 0.00 89 1012.9
20260906001555 66 5 1.0 3.0 0.00 0.00 0.00 89 1012.9
20260906001040 66 0 0.0 3.0 0.00 0.00 0.00 88 1012.8
20260906000543 66 5 0.0 3.0 0.00 0.00 0.00 87 1012.8
20260906000109 67 5 1.0 3.0 0.00 0.00 0.00 87 1012.7
20260905235541 67 5 1.0 3.0 0.00 0.00 0.00 86 1012.7
20260905235041 67 5 2.0 3.0 0.00 0.00 0.00 84 1012.7
20260905234606 68 5 1.0 3.0 0.00 0.00 0.00 84 1012.7
20260905234043 69 5 1.0 3.0 0.00 0.00 0.00 83 1012.5
20260905233542 69 5 1.0 2.0 0.00 0.00 0.00 82 1012.5
20260905233053 69 5 1.0 2.0 0.00 0.00 0.00 82 1012.4
20260905232540 70 0 0.0 2.0 0.00 0.00 0.00 81 1012.4
20260905232041 71 5 1.0 3.0 0.00 0.00 0.00 79 1012.4